Starlink 4671

decayed
NORAD ID: 53593 Int'l Des: 2022-104 Owner: SPXS Country: US Constellation: starlink
LEOCIRCULAR
グループ

Starlink 4671について

説明を読み込み中...

高度履歴

Altitude vs Time

uPlot chart will show altitude changes over time

軌道要素

1 53593U 22104F 25190.23084065 .10959571 12263-4 11699-2 0 9992
2 53593 53.1528 177.8612 0003346 270.5792 186.6965 16.36747316159270
Epoch: Jul 9, 2025 • Age: 3646 hours

現在のステータス

Position data unavailable
打ち上げ日 Aug 28, 2022
運用期間 3.2 years
落下予定日 Jul 9, 2025
タイプ internet

技術仕様

分類 Payload
質量 300.00 kg
乾燥質量 290.00 kg
総質量 300.00 kg
長さ 0.20 m
直径 2.80 m
スパン 9.00 m
形状 Box + pan
製造者 SPXS
バスタイプ Starlink
フェーズステータス Reentered
所有者/国 SPXS/US

大規模コンステレーション

Loading constellations...